Weather History for Tekamah, NE

Change the Weather History Date:

Saturday, February 2, 2013

  Actual Average Record
Temperature  
Mean Temperature 31 °F -  
Max Temperature 39 °F 30 °F 58 °F (1987)
Min Temperature 23 °F 11 °F -16 °F (1978)
Degree Days  
Heating Degree Days 34    
Moisture  
Dew Point 21 °F    
Average Humidity 73    
Maximum Humidity 85    
Minimum Humidity 65    
Precipitation  
Precipitation 0.01 in - - ()
Sea Level Pressure  
Sea Level Pressure 30.14 in    
Wind  
Wind Speed 9 mph (NW)    
Max Wind Speed 24 mph    
Max Gust Speed 30 mph    
Visibility 8 miles    
Events Rain , Snow    
Averages and records for this station are not official NWS values.
T = Trace of Precipitation, MM = Missing Value Source: NWS Daily Summary

Daily Weather History Graph

Daily Weather History Graph

Search for Another Location

Airport:

Trip Planner

Search our weather history database for the weather conditions in past years. The results will help you decide how hot, cold, wet, or windy it might be!

Date:

Astronomy

Feb. 02, 2013 Rise Set
Actual Time 7:35 AM CST 5:41 PM CST
Civil Twilight 7:06 AM CST 6:11 PM CST
Nautical Twilight 6:33 AM CST 6:44 PM CST
Astronomical Twilight 6:00 AM CST 7:17 PM CST
Moon No Moon Rise 10:40 AM CST (2/2)
Length of Visible Light 11h 04m
Length of Day
10h 06m
Waning Gibbous, 59% of the Moon is Illuminated
Feb 2
Waning Gibbous
Feb 3
Last Quarter
Feb 10
New
Feb 17
First Quarter
Feb 25
Full

Hourly Weather History & Observations

Time (CST) Temp. Windchill Dew Point Humidity Pressure Visibility Wind Dir Wind Speed Gust Speed Precip Events Conditions
12:54 AM 28.9 °F 21.9 °F 21.0 °F 72% 30.10 in 10.0 mi NNW 6.9 mph - N/A   Overcast
1:54 AM 28.0 °F 17.0 °F 19.9 °F 72% 30.12 in 10.0 mi NW 13.8 mph - N/A   Overcast
3:54 AM 27.0 °F 18.7 °F 19.0 °F 72% 30.14 in 10.0 mi North 8.1 mph - N/A   Overcast
4:54 AM 26.1 °F 16.2 °F 18.0 °F 71% 30.16 in 10.0 mi NNW 10.4 mph - N/A   Overcast
5:47 AM 24.8 °F 14.6 °F 17.6 °F 74% 30.15 in 2.5 mi North 10.4 mph - 0.00 in Snow Light Snow
6:36 AM 24.8 °F 13.4 °F 17.6 °F 74% 30.16 in 10.0 mi North 12.7 mph - 0.00 in   Overcast
6:54 AM 24.1 °F 12.5 °F 17.1 °F 75% 30.20 in 8.0 mi North 12.7 mph - 0.00 in   Overcast
7:54 AM 23.0 °F 13.1 °F 17.1 °F 78% 30.21 in 10.0 mi North 9.2 mph - N/A   Overcast
8:54 AM 23.0 °F 15.8 °F 17.1 °F 78% 30.23 in 8.0 mi North 5.8 mph - N/A   Overcast
9:11 AM 23.0 °F 17.0 °F 17.6 °F 80% 30.20 in 8.0 mi NNE 4.6 mph - N/A   Overcast
9:54 AM 24.1 °F 19.7 °F 17.1 °F 75% 30.23 in 9.0 mi NNE 3.5 mph - N/A   Overcast
10:54 AM 25.0 °F - 17.1 °F 72% 30.23 in 8.0 mi Calm Calm - N/A   Overcast
11:54 AM 25.0 °F - 18.0 °F 75% 30.21 in 3.0 mi Calm Calm - 0.00 in   Overcast
12:01 PM 24.8 °F - 17.6 °F 74% 30.18 in 4.0 mi Calm Calm - 0.00 in   Haze
12:54 PM 26.1 °F 17.6 °F 19.0 °F 75% 30.17 in 3.0 mi South 8.1 mph - 0.00 in   Haze
1:31 PM 26.6 °F 18.2 °F 19.4 °F 74% 30.14 in 7.0 mi South 8.1 mph - N/A   Overcast
1:54 PM 28.0 °F 20.8 °F 19.9 °F 72% 30.16 in 7.0 mi South 6.9 mph - N/A   Overcast
2:45 PM 30.2 °F 20.8 °F 21.2 °F 69% 30.10 in 9.0 mi SSW 11.5 mph - N/A   Overcast
2:54 PM 30.9 °F 21.7 °F 21.9 °F 69% 30.12 in 9.0 mi South 11.5 mph - N/A   Overcast
3:54 PM 33.1 °F 24.9 °F 24.1 °F 70% 30.08 in 8.0 mi South 10.4 mph - N/A   Mostly Cloudy
4:54 PM 33.1 °F 25.5 °F 26.1 °F 75% 30.07 in 6.0 mi South 9.2 mph - 0.00 in Rain Light Rain
5:54 PM 33.1 °F 26.1 °F 28.0 °F 82% 30.07 in 7.0 mi SSW 8.1 mph - 0.00 in Rain Light Rain
6:54 PM 33.1 °F 28.7 °F 28.9 °F 85% 30.09 in 6.0 mi SSW 4.6 mph - 0.01 in   Overcast
7:54 PM 37.9 °F 29.6 °F 28.9 °F 70% 30.08 in 10.0 mi WNW 13.8 mph - N/A   Clear
8:54 PM 39.0 °F 29.0 °F 28.0 °F 65% 30.08 in 10.0 mi WNW 20.7 mph 28.8 mph N/A   Partly Cloudy
9:54 PM 39.0 °F 28.3 °F 28.0 °F 65% 30.09 in 10.0 mi NNW 24.2 mph 29.9 mph N/A   Scattered Clouds
10:54 PM 36.0 °F 25.6 °F 26.1 °F 67% 30.12 in 10.0 mi North 18.4 mph - N/A   Mostly Cloudy
11:54 PM 30.9 °F 19.8 °F 23.0 °F 72% 30.17 in 10.0 mi NW 16.1 mph - N/A   Clear